FW1564 Weather Reports


time (UTC)temp
C
wind
direction
speed
KPH
gust
KPH
rain 1hr
cm
rain 24hr
cm
rain mn
cm
humidity
%
barometer
mb
20260504045032 13 342 6.4 6.4 0.00 0.30 0.00 93 1015.3
20260504044517 13 342 3.2 6.4 0.00 0.30 0.00 93 1015.2
20260504043032 13 337 3.2 6.4 0.00 0.30 0.00 93 1015.2
20260504042032 13 345 4.8 9.7 0.00 0.30 0.00 94 1015.2
20260504041043 13 341 6.4 6.4 0.00 0.30 0.00 93 1015.3
20260504040527 13 351 4.8 6.4 0.00 0.30 0.00 94 1015.4
20260504035030 13 337 3.2 4.8 0.00 0.30 0.00 94 1015.1
20260504034031 13 343 1.6 3.2 0.00 0.30 0.00 94 1015.3
20260504033034 13 340 1.6 6.4 0.00 0.30 0.00 94 1015.3
20260504032507 13 348 0.0 6.4 0.00 0.30 0.00 94 1015.3
20260504031032 13 346 4.8 6.4 0.00 0.30 0.00 94 1015.3
20260504030032 13 341 3.2 4.8 0.00 0.30 0.00 94 1015.1
20260504025036 14 351 1.6 4.8 0.00 0.30 0.00 94 1015.4
20260504024035 14 9 1.6 3.2 0.00 0.30 0.00 94 1015.4
20260504023032 14 353 3.2 4.8 0.00 0.30 0.00 94 1015.5
20260504022511 14 335 3.2 4.8 0.00 0.30 0.00 94 1015.4
20260504021044 14 344 3.2 6.4 0.00 0.30 0.00 94 1015.5
20260504020033 14 349 3.2 4.8 0.00 0.30 0.00 94 1015.4
20260504015033 14 336 4.8 6.4 0.00 0.30 0.00 95 1015.6
20260504014034 14 343 4.8 6.4 0.00 0.30 0.00 96 1015.6
20260504013032 13 344 3.2 9.7 0.00 0.30 0.00 96 1015.9
20260504012521 13 338 3.2 6.4 0.00 0.30 0.00 97 1015.9
20260504011035 13 346 4.8 9.7 0.00 0.30 0.00 97 1016.0
20260504010036 13 359 3.2 6.4 0.00 0.30 0.00 97 1016.2
20260504005033 13 340 4.8 4.8 0.00 0.30 0.00 98 1016.0
20260504004033 13 354 3.2 6.4 0.00 0.30 0.00 98 1016.2
20260504003032 13 347 3.2 3.2 0.00 0.30 0.00 98 1016.3
20260504002033 13 341 1.6 4.8 0.00 0.30 0.00 98 1016.3
20260504001522 13 338 4.8 9.7 0.00 0.30 0.00 98 1016.2
20260504000037 13 349 1.6 1.6 0.00 0.30 0.00 98 1016.4
20260503235031 13 356 1.6 3.2 0.00 0.30 0.00 98 1016.5
20260503234034 13 23 0.0 3.2 0.00 0.30 0.00 98 1016.6
20260503233031 13 344 4.8 6.4 0.00 0.30 0.00 98 1016.5
20260503232031 13 342 1.6 3.2 0.00 0.30 0.00 98 1016.6
20260503231031 13 343 1.6 1.6 0.00 0.30 0.00 98 1016.4
20260503230032 14 347 0.0 3.2 0.00 0.30 0.00 98 1016.5
20260503225031 14 354 1.6 3.2 0.00 0.30 0.30 98 1016.5
20260503224031 13 337 1.6 3.2 0.00 0.30 0.30 98 1016.4
20260503223036 13 3 1.6 4.8 0.00 0.30 0.30 98 1016.3
20260503222035 15 28 0.0 1.6 0.00 0.30 0.30 98 1016.4
20260503221031 15 81 0.0 0.0 0.00 0.30 0.30 98 1016.6
20260503220031 15 115 0.0 1.6 0.00 0.30 0.30 98 1016.6
20260503215032 15 125 0.0 3.2 0.00 0.30 0.30 98 1016.5
20260503214033 15 138 0.0 1.6 0.03 0.30 0.30 98 1016.3
20260503213032 15 84 0.0 0.0 0.03 0.30 0.30 98 1016.2
20260503212031 15 87 0.0 4.8 0.03 0.30 0.30 98 1016.2
20260503211033 15 79 1.6 3.2 0.03 0.30 0.30 98 1015.9
20260503210034 15 146 1.6 4.8 0.03 0.30 0.30 98 1015.8
20260503205033 15 126 0.0 3.2 0.05 0.30 0.30 98 1015.9
20260503204506 15 78 0.0 1.6 0.03 0.28 0.28 98 1015.6
20260503203031 15 128 1.6 1.6 0.03 0.28 0.28 98 1015.8
20260503202031 15 109 0.0 1.6 0.03 0.28 0.28 98 1015.7
20260503201032 15 101 0.0 0.0 0.05 0.28 0.28 98 1015.6
20260503200012 15 120 0.0 1.6 0.05 0.28 0.28 98 1015.5
20260503194943 15 124 0.0 1.6 0.03 0.25 0.25 98 1015.5
20260503194422 15 104 0.0 1.6 0.03 0.25 0.25 98 1015.5
20260503192943 15 87 1.6 3.2 0.03 0.25 0.25 98 1015.3
20260503191942 15 129 0.0 3.2 0.03 0.25 0.25 98 1015.2
20260503190943 15 101 0.0 1.6 0.03 0.23 0.23 97 1015.4
20260503190415 15 80 0.0 3.2 0.03 0.23 0.23 98 1015.2
20260503184942 15 111 0.0 1.6 0.03 0.23 0.23 97 1014.8
20260503184416 15 123 0.0 3.2 0.03 0.23 0.23 97 1015.3
20260503182930 15 111 0.0 3.2 0.03 0.23 0.23 97 1015.3
20260503181930 15 104 0.0 3.2 0.03 0.23 0.23 97 1015.1
20260503180930 15 147 3.2 4.8 0.00 0.20 0.20 97 1015.1
20260503175931 15 139 1.6 6.4 0.03 0.20 0.20 97 1015.4
20260503174930 15 141 1.6 6.4 0.03 0.20 0.20 97 1015.2
20260503173930 15 134 1.6 9.7 0.03 0.20 0.20 97 1015.5
20260503172930 15 59 4.8 6.4 0.03 0.20 0.20 97 1015.2
20260503172843 15 131 3.2 4.8 0.03 0.20 0.20 97 1015.4
20260503170930 15 69 1.6 4.8 0.03 0.20 0.20 97 1015.4
20260503130930 16 81 1.6 6.4 0.00 0.03 0.03 95 1016.6
20260503080930 14 75 1.6 3.2 0.00 0.00 0.00 86 1016.6
20260503072929 14 32 0.0 1.6 0.00 0.00 0.00 87 1016.5
20260503071930 14 5 1.6 1.6 0.00 0.00 0.00 85 1016.5
20260503071408 13 6 0.0 1.6 0.00 0.00 0.00 85 1016.4